Location: Sternwarte Zollern-Alb
(48.2880°N, 8.6780°E)
Time: 02:43:18
(UTC+02:00)

ISS - Pass Details

Date: 25 April 2026
Orbit: 414 x 424 km, 51.6° (Epoch: 19 May)

Event Time Altitude Azimuth Distance (km) Brightness Sun altitude
Exits shadow 03:12:31 13° 100° (E) 1,350 -1.0 -24.0°
Drops below altitude 10° 03:13:04 10° 93° (E) 1,497 -0.7 -23.9°
Sets 03:15:36 0° 74° (ENE) 2,368 0.7 -23.7°
